Time,TemperatureF,DewpointF,PressureIn,WindDirection,WindDirectionDegrees,WindSpeedMPH,WindSpeedGustMPH,Humidity,HourlyPrecipIn,Conditions,Clouds,dailyrainin,SoftwareType,DateUTC
2013-06-23 00:04:00,62.1,62.1,29.56,North,360,0.1,2.7,100,-99.99,,,-99.99,WSDL version 423,2013-06-23 04:04:00,
2013-06-23 00:09:00,62.1,62.1,29.56,NNW,346,0.6,2.7,100,-99.99,,,-99.99,WSDL version 423,2013-06-23 04:09:00,
2013-06-23 00:14:00,62.1,62.1,29.56,North,6,0.1,2.2,100,-99.99,,,-99.99,WSDL version 423,2013-06-23 04:14:00,
2013-06-23 00:19:00,62.1,62.1,29.56,NNW,340,0.6,2.2,100,-99.99,,,-99.99,WSDL version 423,2013-06-23 04:19:00,
2013-06-23 00:24:00,62.1,62.1,29.56,North,360,0.1,2.0,100,-99.99,,,-99.99,WSDL version 423,2013-06-23 04:24:00,
2013-06-23 00:29:00,62.1,62.1,29.56,North,349,0.6,1.6,100,-99.99,,,-99.99,WSDL version 423,2013-06-23 04:29:00,
2013-06-23 00:34:00,62.1,62.1,29.56,NNW,338,0.0,1.6,100,-99.99,,,-99.99,WSDL version 423,2013-06-23 04:34:00,
2013-06-23 00:39:00,62.1,62.1,29.53,North,360,0.0,1.3,100,-99.99,,,-99.99,WSDL version 423,2013-06-23 04:39:00,
2013-06-23 00:44:00,62.1,62.1,29.53,North,360,0.0,1.3,100,-99.99,,,-99.99,WSDL version 423,2013-06-23 04:44:00,
2013-06-23 00:49:00,62.1,62.1,29.53,NNW,338,1.0,2.7,100,-99.99,,,-99.99,WSDL version 423,2013-06-23 04:49:00,
2013-06-23 00:54:00,62.1,62.1,29.53,North,350,0.7,2.7,100,-99.99,,,-99.99,WSDL version 423,2013-06-23 04:54:00,
2013-06-23 00:59:00,62.1,62.1,29.53,North,8,0.8,2.0,100,-99.99,,,-99.99,WSDL version 423,2013-06-23 04:59:00,
2013-06-23 01:04:00,62.1,62.1,29.53,North,360,0.0,2.2,100,-99.99,,,-99.99,WSDL version 423,2013-06-23 05:04:00,
2013-06-23 01:09:00,62.1,62.1,29.53,North,354,1.0,2.2,100,-99.99,,,-99.99,WSDL version 423,2013-06-23 05:09:00,
2013-06-23 01:14:00,62.1,62.1,29.53,North,350,1.4,2.2,100,-99.99,,,-99.99,WSDL version 423,2013-06-23 05:14:00,
2013-06-23 01:19:00,62.1,62.1,29.53,NNW,346,0.3,2.2,100,-99.99,,,-99.99,WSDL version 423,2013-06-23 05:19:00,
2013-06-23 01:24:00,62.1,62.1,29.53,North,360,0.8,2.2,100,-99.99,,,-99.99,WSDL version 423,2013-06-23 05:24:00,
2013-06-23 01:29:00,62.1,62.1,29.53,North,5,0.8,2.7,100,-99.99,,,-99.99,WSDL version 423,2013-06-23 05:29:00,
2013-06-23 01:34:00,62.1,62.1,29.53,North,3,1.3,2.7,100,-99.99,,,-99.99,WSDL version 423,2013-06-23 05:34:00,
2013-06-23 01:39:00,62.1,62.1,29.53,North,360,1.4,2.9,100,-99.99,,,-99.99,WSDL version 423,2013-06-23 05:39:00,
2013-06-23 01:44:00,62.1,62.1,29.53,NNE,14,0.0,2.9,100,-99.99,,,-99.99,WSDL version 423,2013-06-23 05:44:00,
2013-06-23 01:49:00,62.1,62.1,29.53,North,11,1.0,1.6,100,-99.99,,,-99.99,WSDL version 423,2013-06-23 05:49:00,
2013-06-23 01:54:00,62.1,62.1,29.53,North,352,0.1,1.6,100,-99.99,,,-99.99,WSDL version 423,2013-06-23 05:54:00,
2013-06-23 01:59:00,62.1,62.1,29.53,North,350,0.0,1.6,100,-99.99,,,-99.99,WSDL version 423,2013-06-23 05:59:00,
2013-06-23 02:04:00,62.2,62.2,29.53,North,3,1.2,2.0,100,-99.99,,,-99.99,WSDL version 423,2013-06-23 06:04:00,
2013-06-23 02:09:00,62.2,62.2,29.53,NNW,344,1.0,2.2,100,-99.99,,,-99.99,WSDL version 423,2013-06-23 06:09:00,
2013-06-23 02:14:00,62.2,62.2,29.53,North,355,0.5,2.2,100,-99.99,,,-99.99,WSDL version 423,2013-06-23 06:14:00,
2013-06-23 02:19:00,62.2,62.2,29.53,North,357,1.2,2.2,100,-99.99,,,-99.99,WSDL version 423,2013-06-23 06:19:00,
2013-06-23 02:24:00,62.2,62.2,29.53,North,353,0.0,2.0,100,-99.99,,,-99.99,WSDL version 423,2013-06-23 06:24:00,
2013-06-23 02:29:00,62.2,62.2,29.53,North,354,0.0,1.1,100,-99.99,,,-99.99,WSDL version 423,2013-06-23 06:29:00,
2013-06-23 02:34:00,62.2,62.2,29.53,North,355,0.0,0.9,100,-99.99,,,-99.99,WSDL version 423,2013-06-23 06:34:00,
2013-06-23 02:39:00,62.2,62.2,29.50,NNW,346,0.0,1.1,100,-99.99,,,-99.99,WSDL version 423,2013-06-23 06:39:00,
2013-06-23 02:44:00,62.2,62.2,29.50,NNW,338,0.1,1.3,100,-99.99,,,-99.99,WSDL version 423,2013-06-23 06:44:00,
2013-06-23 02:49:00,62.2,62.2,29.50,NNW,338,0.1,1.3,100,-99.99,,,-99.99,WSDL version 423,2013-06-23 06:49:00,
2013-06-23 02:54:00,62.2,62.2,29.50,NNE,23,0.8,1.3,100,-99.99,,,-99.99,WSDL version 423,2013-06-23 06:54:00,
2013-06-23 02:59:00,62.3,62.3,29.50,North,360,0.0,1.3,100,-99.99,,,-99.99,WSDL version 423,2013-06-23 06:59:00,
2013-06-23 03:04:00,62.4,62.4,29.50,North,11,1.0,1.6,100,-99.99,,,-99.99,WSDL version 423,2013-06-23 07:04:00,
2013-06-23 03:09:00,62.4,62.4,29.50,NNE,15,0.0,1.6,100,-99.99,,,-99.99,WSDL version 423,2013-06-23 07:09:00,
2013-06-23 03:14:00,62.4,62.4,29.50,North,360,0.0,1.1,100,-99.99,,,-99.99,WSDL version 423,2013-06-23 07:14:00,
2013-06-23 03:19:00,62.4,62.4,29.50,NNW,343,0.0,0.9,100,-99.99,,,-99.99,WSDL version 423,2013-06-23 07:19:00,
2013-06-23 03:24:00,62.4,62.4,29.50,NNW,340,0.0,0.0,100,-99.99,,,-99.99,WSDL version 423,2013-06-23 07:24:00,
2013-06-23 03:29:00,62.4,62.4,29.50,North,360,0.0,0.0,100,-99.99,,,-99.99,WSDL version 423,2013-06-23 07:29:00,
2013-06-23 03:34:00,62.4,62.4,29.50,North,360,0.0,0.0,100,-99.99,,,-99.99,WSDL version 423,2013-06-23 07:34:00,
2013-06-23 03:39:00,62.4,62.4,29.50,North,360,0.0,0.0,100,-99.99,,,-99.99,WSDL version 423,2013-06-23 07:39:00,
2013-06-23 03:44:00,62.4,62.4,29.50,North,360,0.0,0.0,100,-99.99,,,-99.99,WSDL version 423,2013-06-23 07:44:00,
2013-06-23 03:49:00,62.5,62.5,29.50,North,355,0.0,0.0,100,-99.99,,,-99.99,WSDL version 423,2013-06-23 07:49:00,
2013-06-23 03:54:00,62.5,62.5,29.50,NNW,340,0.0,0.0,100,-99.99,,,-99.99,WSDL version 423,2013-06-23 07:54:00,
2013-06-23 03:59:00,62.5,62.5,29.50,NNW,338,0.0,0.0,100,-99.99,,,-99.99,WSDL version 423,2013-06-23 07:59:00,
2013-06-23 04:04:00,62.5,62.5,29.50,NNW,343,0.0,0.0,100,-99.99,,,-99.99,WSDL version 423,2013-06-23 08:04:00,
2013-06-23 04:09:00,62.5,62.5,29.50,North,360,0.0,1.1,100,-99.99,,,-99.99,WSDL version 423,2013-06-23 08:09:00,
2013-06-23 04:14:00,62.6,62.6,29.50,North,360,0.0,1.1,100,-99.99,,,-99.99,WSDL version 423,2013-06-23 08:14:00,
2013-06-23 04:19:00,62.6,62.6,29.50,North,360,0.0,0.0,100,-99.99,,,-99.99,WSDL version 423,2013-06-23 08:19:00,
2013-06-23 04:24:00,62.6,62.6,29.50,North,360,0.0,0.0,100,-99.99,,,-99.99,WSDL version 423,2013-06-23 08:24:00,
2013-06-23 04:29:00,62.6,62.6,29.50,North,360,0.0,0.0,100,-99.99,,,-99.99,WSDL version 423,2013-06-23 08:29:00,
2013-06-23 04:34:00,62.6,62.6,29.50,North,360,0.0,0.0,100,-99.99,,,-99.99,WSDL version 423,2013-06-23 08:34:00,
2013-06-23 04:39:00,62.6,62.6,29.50,North,360,0.0,0.0,100,-99.99,,,-99.99,WSDL version 423,2013-06-23 08:39:00,
2013-06-23 04:44:00,62.6,62.6,29.50,North,360,0.0,0.0,100,-99.99,,,-99.99,WSDL version 423,2013-06-23 08:44:00,
2013-06-23 04:49:00,62.6,62.6,29.50,North,360,0.0,0.0,100,-99.99,,,-99.99,WSDL version 423,2013-06-23 08:49:00,
2013-06-23 04:54:00,62.6,62.6,29.50,North,360,0.0,0.0,100,-99.99,,,-99.99,WSDL version 423,2013-06-23 08:54:00,
2013-06-23 04:59:00,62.6,62.6,29.50,North,360,0.0,0.0,100,-99.99,,,-99.99,WSDL version 423,2013-06-23 08:59:00,
2013-06-23 05:04:00,62.6,62.6,29.50,North,360,0.0,0.0,100,-99.99,,,-99.99,WSDL version 423,2013-06-23 09:04:00,
2013-06-23 05:09:00,62.6,62.6,29.50,North,360,0.0,0.0,100,-99.99,,,-99.99,WSDL version 423,2013-06-23 09:09:00,
2013-06-23 05:14:00,62.6,62.6,29.50,NE,45,0.0,0.0,100,-99.99,,,-99.99,WSDL version 423,2013-06-23 09:14:00,
2013-06-23 05:19:00,62.6,62.6,29.50,NE,45,0.0,0.0,100,-99.99,,,-99.99,WSDL version 423,2013-06-23 09:19:00,
2013-06-23 05:24:00,62.6,62.6,29.53,NE,45,0.0,0.0,100,-99.99,,,-99.99,WSDL version 423,2013-06-23 09:24:00,
2013-06-23 05:29:00,62.6,62.6,29.53,NE,45,0.0,0.0,100,-99.99,,,-99.99,WSDL version 423,2013-06-23 09:29:00,
2013-06-23 05:34:00,62.6,62.6,29.53,NE,45,0.0,0.0,100,-99.99,,,-99.99,WSDL version 423,2013-06-23 09:34:00,
2013-06-23 05:39:00,62.6,62.6,29.53,NE,42,0.0,0.0,100,-99.99,,,-99.99,WSDL version 423,2013-06-23 09:39:00,
2013-06-23 05:44:00,62.6,62.6,29.53,North,350,0.0,0.9,100,-99.99,,,-99.99,WSDL version 423,2013-06-23 09:44:00,
2013-06-23 05:49:00,62.8,62.8,29.53,NW,326,0.0,0.9,100,-99.99,,,-99.99,WSDL version 423,2013-06-23 09:49:00,
2013-06-23 05:54:00,62.8,62.8,29.53,North,360,0.0,0.0,100,-99.99,,,-99.99,WSDL version 423,2013-06-23 09:54:00,
2013-06-23 05:59:00,62.8,62.8,29.53,North,352,0.4,1.6,100,-99.99,,,-99.99,WSDL version 423,2013-06-23 09:59:00,
2013-06-23 06:04:00,62.8,62.8,29.53,North,360,0.1,2.2,100,-99.99,,,-99.99,WSDL version 423,2013-06-23 10:04:00,
2013-06-23 06:09:00,62.9,62.9,29.53,NNW,348,0.9,2.2,100,-99.99,,,-99.99,WSDL version 423,2013-06-23 10:09:00,
2013-06-23 06:14:00,63.0,63.0,29.53,North,349,0.1,1.6,100,-99.99,,,-99.99,WSDL version 423,2013-06-23 10:14:00,
2013-06-23 06:19:00,63.0,63.0,29.53,North,8,1.0,2.0,100,-99.99,,,-99.99,WSDL version 423,2013-06-23 10:19:00,
2013-06-23 06:24:00,63.0,63.0,29.53,NNW,343,1.1,2.2,100,-99.99,,,-99.99,WSDL version 423,2013-06-23 10:24:00,
2013-06-23 06:29:00,63.1,63.0,29.53,NNW,343,0.0,2.2,100,-99.99,,,-99.99,WSDL version 423,2013-06-23 10:29:00,
2013-06-23 06:34:00,63.1,63.1,29.53,NNW,344,1.0,1.6,100,-99.99,,,-99.99,WSDL version 423,2013-06-23 10:34:00,
2013-06-23 06:39:00,63.2,63.2,29.53,NNE,33,0.0,2.2,100,-99.99,,,-99.99,WSDL version 423,2013-06-23 10:39:00,
2013-06-23 06:44:00,63.3,63.3,29.53,NNE,23,0.0,2.2,100,-99.99,,,-99.99,WSDL version 423,2013-06-23 10:44:00,
2013-06-23 06:49:00,63.4,63.3,29.53,NNW,338,0.9,1.6,100,-99.99,,,-99.99,WSDL version 423,2013-06-23 10:49:00,
2013-06-23 06:54:00,63.5,63.5,29.53,North,360,0.0,1.6,100,-99.99,,,-99.99,WSDL version 423,2013-06-23 10:54:00,
2013-06-23 06:59:00,63.6,63.6,29.53,North,360,0.0,1.1,100,-99.99,,,-99.99,WSDL version 423,2013-06-23 10:59:00,
2013-06-23 07:04:00,63.7,63.7,29.53,North,360,0.0,0.0,100,-99.99,,,-99.99,WSDL version 423,2013-06-23 11:04:00,
2013-06-23 07:09:00,63.9,63.9,29.53,North,360,0.0,0.0,100,-99.99,,,-99.99,WSDL version 423,2013-06-23 11:09:00,
2013-06-23 07:14:00,64.0,64.0,29.53,NNW,338,0.0,0.0,100,-99.99,,,-99.99,WSDL version 423,2013-06-23 11:14:00,
2013-06-23 07:19:00,64.1,64.1,29.53,NNW,338,0.0,0.0,100,-99.99,,,-99.99,WSDL version 423,2013-06-23 11:19:00,
2013-06-23 07:24:00,64.2,64.2,29.53,NNW,338,0.0,0.0,100,-99.99,,,-99.99,WSDL version 423,2013-06-23 11:24:00,
2013-06-23 07:29:00,64.2,64.2,29.53,NNW,338,0.0,0.9,100,-99.99,,,-99.99,WSDL version 423,2013-06-23 11:29:00,
2013-06-23 07:34:00,64.3,64.3,29.53,NNW,338,0.0,0.9,100,-99.99,,,-99.99,WSDL version 423,2013-06-23 11:34:00,
2013-06-23 07:39:00,64.5,64.5,29.53,NNE,20,0.0,1.3,100,-99.99,,,-99.99,WSDL version 423,2013-06-23 11:39:00,
2013-06-23 07:44:00,64.7,64.7,29.53,NNW,338,0.0,1.3,100,-99.99,,,-99.99,WSDL version 423,2013-06-23 11:44:00,
2013-06-23 07:49:00,64.9,64.9,29.53,NE,55,0.0,1.1,100,-99.99,,,-99.99,WSDL version 423,2013-06-23 11:49:00,
2013-06-23 07:54:00,65.2,65.2,29.53,North,349,0.8,1.3,100,-99.99,,,-99.99,WSDL version 423,2013-06-23 11:54:00,
2013-06-23 07:59:00,65.4,65.4,29.53,North,360,0.0,1.6,100,-99.99,,,-99.99,WSDL version 423,2013-06-23 11:59:00,
2013-06-23 08:04:00,65.7,65.7,29.53,NE,45,0.0,1.6,100,-99.99,,,-99.99,WSDL version 423,2013-06-23 12:04:00,
2013-06-23 08:09:00,65.8,65.8,29.53,North,8,0.4,1.6,100,-99.99,,,-99.99,WSDL version 423,2013-06-23 12:09:00,
2013-06-23 08:14:00,66.1,66.1,29.53,NNE,14,0.0,1.6,100,-99.99,,,-99.99,WSDL version 423,2013-06-23 12:14:00,
2013-06-23 08:19:00,66.4,66.4,29.53,NNE,17,0.0,1.1,100,-99.99,,,-99.99,WSDL version 423,2013-06-23 12:19:00,
2013-06-23 08:24:00,66.9,66.9,29.50,NNE,28,0.0,1.3,100,-99.99,,,-99.99,WSDL version 423,2013-06-23 12:24:00,
2013-06-23 08:29:00,67.3,67.3,29.50,NNW,338,0.7,2.0,100,-99.99,,,-99.99,WSDL version 423,2013-06-23 12:29:00,
2013-06-23 08:34:00,67.7,67.7,29.50,ENE,68,0.0,2.0,100,-99.99,,,-99.99,WSDL version 423,2013-06-23 12:34:00,
2013-06-23 08:39:00,68.5,68.5,29.50,NE,45,0.7,2.2,100,-99.99,,,-99.99,WSDL version 423,2013-06-23 12:39:00,
2013-06-23 08:44:00,69.5,69.5,29.50,NNW,338,0.0,2.2,100,-99.99,,,-99.99,WSDL version 423,2013-06-23 12:44:00,
2013-06-23 08:49:00,69.3,69.3,29.50,NNW,345,0.0,1.6,100,-99.99,,,-99.99,WSDL version 423,2013-06-23 12:49:00,
2013-06-23 08:54:00,69.5,69.5,29.50,NNW,329,1.1,2.7,100,-99.99,,,-99.99,WSDL version 423,2013-06-23 12:54:00,
2013-06-23 08:59:00,69.4,69.4,29.50,NW,305,1.7,2.7,100,-99.99,,,-99.99,WSDL version 423,2013-06-23 12:59:00,
2013-06-23 09:04:00,69.2,69.2,29.50,NE,53,1.4,2.5,100,-99.99,,,-99.99,WSDL version 423,2013-06-23 13:04:00,
2013-06-23 09:09:00,69.0,69.0,29.50,NW,304,1.9,3.1,100,-99.99,,,-99.99,WSDL version 423,2013-06-23 13:09:00,
2013-06-23 09:14:00,68.9,68.9,29.50,NW,323,1.9,3.8,100,-99.99,,,-99.99,WSDL version 423,2013-06-23 13:14:00,
2013-06-23 09:19:00,68.9,68.9,29.50,SW,225,0.6,3.8,100,-99.99,,,-99.99,WSDL version 423,2013-06-23 13:19:00,
2013-06-23 09:24:00,68.8,68.8,29.50,South,177,0.4,2.9,100,-99.99,,,-99.99,WSDL version 423,2013-06-23 13:24:00,
2013-06-23 09:29:00,68.7,68.7,29.50,WSW,250,0.0,2.0,100,-99.99,,,-99.99,WSDL version 423,2013-06-23 13:29:00,
2013-06-23 09:34:00,68.8,68.8,29.50,NNW,330,1.1,2.0,100,-99.99,,,-99.99,WSDL version 423,2013-06-23 13:34:00,
2013-06-23 09:39:00,68.9,68.9,29.50,NW,307,0.0,2.0,100,-99.99,,,-99.99,WSDL version 423,2013-06-23 13:39:00,
2013-06-23 09:44:00,68.9,68.9,29.50,WNW,295,0.0,1.1,100,-99.99,,,-99.99,WSDL version 423,2013-06-23 13:44:00,
2013-06-23 09:49:00,68.9,68.9,29.50,East,88,0.8,2.7,100,-99.99,,,-99.99,WSDL version 423,2013-06-23 13:49:00,
2013-06-23 09:54:00,68.9,68.9,29.50,NW,315,0.4,2.7,100,-99.99,,,-99.99,WSDL version 423,2013-06-23 13:54:00,
2013-06-23 09:59:00,69.0,69.0,29.50,NW,315,0.0,2.5,100,-99.99,,,-99.99,WSDL version 423,2013-06-23 13:59:00,
2013-06-23 10:04:00,69.1,69.1,29.50,NW,315,0.0,2.0,100,-99.99,,,-99.99,WSDL version 423,2013-06-23 14:04:00,
2013-06-23 10:09:00,69.2,69.2,29.50,NW,315,0.0,0.0,100,-99.99,,,-99.99,WSDL version 423,2013-06-23 14:09:00,
2013-06-23 10:14:00,69.5,69.5,29.50,NW,315,0.0,0.0,100,-99.99,,,-99.99,WSDL version 423,2013-06-23 14:14:00,
2013-06-23 10:19:00,69.6,69.6,29.50,NW,315,0.0,0.0,100,-99.99,,,-99.99,WSDL version 423,2013-06-23 14:19:00,
2013-06-23 10:24:00,69.5,69.3,29.50,NW,315,0.0,0.0,99,-99.99,,,-99.99,WSDL version 423,2013-06-23 14:24:00,
2013-06-23 10:29:00,69.3,68.9,29.50,NW,315,0.0,0.0,98,-99.99,,,-99.99,WSDL version 423,2013-06-23 14:29:00,
2013-06-23 10:34:00,69.2,68.7,29.50,NW,315,0.0,0.0,98,-99.99,,,-99.99,WSDL version 423,2013-06-23 14:34:00,
2013-06-23 10:39:00,69.0,68.4,29.50,NW,315,0.0,0.0,98,-99.99,,,-99.99,WSDL version 423,2013-06-23 14:39:00,
2013-06-23 10:44:00,68.9,68.3,29.50,NW,315,0.0,0.0,98,-99.99,,,-99.99,WSDL version 423,2013-06-23 14:44:00,
2013-06-23 10:49:00,68.8,68.5,29.50,NW,315,0.0,0.0,99,-99.99,,,-99.99,WSDL version 423,2013-06-23 14:49:00,
2013-06-23 10:54:00,69.0,68.6,29.50,NW,315,0.0,0.0,99,-99.99,,,-99.99,WSDL version 423,2013-06-23 14:54:00,
2013-06-23 10:59:00,69.1,68.8,29.50,NW,315,0.0,0.0,99,-99.99,,,-99.99,WSDL version 423,2013-06-23 14:59:00,
2013-06-23 11:04:00,69.3,68.9,29.50,SSE,167,0.0,0.0,99,-99.99,,,-99.99,WSDL version 423,2013-06-23 15:04:00,
2013-06-23 11:14:00,70.2,69.9,29.50,South,180,0.0,0.9,99,-99.99,,,-99.99,WSDL version 423,2013-06-23 15:14:00,
2013-06-23 11:19:00,70.8,70.3,29.50,WSW,248,0.0,1.1,98,-99.99,,,-99.99,WSDL version 423,2013-06-23 15:19:00,
2013-06-23 11:24:00,71.6,71.0,29.50,WSW,248,0.0,1.1,98,-99.99,,,-99.99,WSDL version 423,2013-06-23 15:24:00,
2013-06-23 11:29:00,72.9,71.9,29.50,WSW,248,0.0,0.0,96,-99.99,,,-99.99,WSDL version 423,2013-06-23 15:29:00,
2013-06-23 11:34:00,73.1,71.4,29.50,WSW,248,0.0,0.0,93,-99.99,,,-99.99,WSDL version 423,2013-06-23 15:34:00,
2013-06-23 11:44:00,73.1,70.3,29.50,NNW,343,0.3,2.5,91,-99.99,,,-99.99,WSDL version 423,2013-06-23 15:44:00,
2013-06-23 11:49:00,72.9,69.2,29.50,North,360,1.0,2.5,87,-99.99,,,-99.99,WSDL version 423,2013-06-23 15:49:00,
2013-06-23 11:54:00,72.5,68.2,29.50,SSE,160,0.0,2.2,86,-99.99,,,-99.99,WSDL version 423,2013-06-23 15:54:00,
2013-06-23 11:59:00,72.1,67.9,29.50,SW,235,0.0,2.0,87,-99.99,,,-99.99,WSDL version 423,2013-06-23 15:59:00,
2013-06-23 12:04:00,71.9,68.0,29.50,SSW,200,0.0,0.9,88,-99.99,,,-99.99,WSDL version 423,2013-06-23 16:04:00,
2013-06-23 12:14:00,73.0,69.5,29.50,West,259,0.3,2.0,89,-99.99,,,-99.99,WSDL version 423,2013-06-23 16:14:00,
2013-06-23 12:19:00,73.5,69.6,29.50,SSW,200,0.0,2.0,88,-99.99,,,-99.99,WSDL version 423,2013-06-23 16:19:00,
2013-06-23 12:24:00,73.4,68.8,29.50,NW,315,0.1,1.6,84,-99.99,,,-99.99,WSDL version 423,2013-06-23 16:24:00,
2013-06-23 12:29:00,73.0,68.4,29.50,WSW,248,0.0,1.6,87,-99.99,,,-99.99,WSDL version 423,2013-06-23 16:29:00,
2013-06-23 12:34:00,73.1,68.9,29.50,West,273,0.3,2.2,87,-99.99,,,-99.99,WSDL version 423,2013-06-23 16:34:00,
2013-06-23 12:39:00,73.2,68.1,29.50,NNW,346,1.1,3.1,83,-99.99,,,-99.99,WSDL version 423,2013-06-23 16:39:00,
2013-06-23 12:44:00,73.3,68.2,29.50,West,276,0.8,3.1,84,-99.99,,,-99.99,WSDL version 423,2013-06-23 16:44:00,
2013-06-23 12:49:00,73.9,69.0,29.50,NE,39,0.7,2.5,84,-99.99,,,-99.99,WSDL version 423,2013-06-23 16:49:00,
2013-06-23 12:54:00,74.3,68.9,29.47,South,180,0.5,2.7,82,-99.99,,,-99.99,WSDL version 423,2013-06-23 16:54:00,
2013-06-23 12:59:00,74.4,68.2,29.47,SSW,208,0.5,3.8,81,-99.99,,,-99.99,WSDL version 423,2013-06-23 16:59:00,
2013-06-23 13:04:00,74.7,68.2,29.47,NW,315,0.2,3.8,80,-99.99,,,-99.99,WSDL version 423,2013-06-23 17:04:00,
2013-06-23 13:09:00,74.9,68.3,29.47,NNW,345,0.0,2.5,80,-99.99,,,-99.99,WSDL version 423,2013-06-23 17:09:00,
2013-06-23 13:19:00,75.3,68.7,29.47,SSW,205,0.0,2.7,80,-99.99,,,-99.99,WSDL version 423,2013-06-23 17:19:00,
2013-06-23 13:24:00,75.7,68.9,29.47,NNW,340,0.0,2.9,79,-99.99,,,-99.99,WSDL version 423,2013-06-23 17:24:00,
2013-06-23 13:29:00,75.9,68.9,29.47,SW,233,1.0,3.1,79,-99.99,,,-99.99,WSDL version 423,2013-06-23 17:29:00,
2013-06-23 13:34:00,76.2,68.3,29.47,West,267,0.6,3.1,76,-99.99,,,-99.99,WSDL version 423,2013-06-23 17:34:00,
2013-06-23 13:39:00,76.2,68.3,29.47,SSW,203,0.1,2.7,77,-99.99,,,-99.99,WSDL version 423,2013-06-23 17:39:00,
2013-06-23 13:44:00,76.2,68.8,29.47,SSW,210,0.0,1.3,79,-99.99,,,-99.99,WSDL version 423,2013-06-23 17:44:00,
2013-06-23 13:49:00,77.5,70.4,29.47,SW,225,0.0,0.0,78,-99.99,,,-99.99,WSDL version 423,2013-06-23 17:49:00,
2013-06-23 13:54:00,78.1,70.6,29.47,SW,225,0.0,0.0,78,-99.99,,,-99.99,WSDL version 423,2013-06-23 17:54:00,
2013-06-23 13:59:00,79.1,71.0,29.47,South,172,0.0,0.0,76,-99.99,,,-99.99,WSDL version 423,2013-06-23 17:59:00,
2013-06-23 14:04:00,79.6,70.5,29.47,SSW,203,0.0,0.0,73,-99.99,,,-99.99,WSDL version 423,2013-06-23 18:04:00,
2013-06-23 14:09:00,80.3,70.2,29.47,South,174,0.0,0.9,72,-99.99,,,-99.99,WSDL version 423,2013-06-23 18:09:00,
2013-06-23 14:14:00,82.2,71.8,29.47,SW,220,0.1,1.6,70,-99.99,,,-99.99,WSDL version 423,2013-06-23 18:14:00,
2013-06-23 14:19:00,83.0,71.3,29.47,SSW,208,0.0,1.6,66,-99.99,,,-99.99,WSDL version 423,2013-06-23 18:19:00,
2013-06-23 14:24:00,82.7,69.9,29.44,SW,225,0.0,1.1,65,-99.99,,,-99.99,WSDL version 423,2013-06-23 18:24:00,
2013-06-23 14:29:00,83.5,70.1,29.44,SW,225,0.0,1.1,63,-99.99,,,-99.99,WSDL version 423,2013-06-23 18:29:00,
2013-06-23 14:34:00,83.2,69.3,29.44,SSW,209,0.4,1.3,64,-99.99,,,-99.99,WSDL version 423,2013-06-23 18:34:00,
2013-06-23 14:39:00,83.0,69.6,29.44,SSW,213,0.0,1.3,64,-99.99,,,-99.99,WSDL version 423,2013-06-23 18:39:00,
2013-06-23 14:44:00,82.7,68.6,29.44,SW,225,0.0,1.3,61,-99.99,,,-99.99,WSDL version 423,2013-06-23 18:44:00,
2013-06-23 14:49:00,81.9,67.5,29.44,SW,225,0.1,2.0,62,-99.99,,,-99.99,WSDL version 423,2013-06-23 18:49:00,
2013-06-23 14:54:00,81.3,67.5,29.44,SW,225,0.0,2.0,64,-99.99,,,-99.99,WSDL version 423,2013-06-23 18:54:00,
2013-06-23 14:59:00,81.5,68.5,29.44,SW,225,0.0,0.0,65,-99.99,,,-99.99,WSDL version 423,2013-06-23 18:59:00,
2013-06-23 15:04:00,81.1,68.2,29.44,SSW,200,0.8,2.7,65,-99.99,,,-99.99,WSDL version 423,2013-06-23 19:04:00,
2013-06-23 15:09:00,80.7,67.9,29.44,WSW,245,0.0,2.7,65,-99.99,,,-99.99,WSDL version 423,2013-06-23 19:09:00,
2013-06-23 15:14:00,80.4,68.0,29.44,SW,215,0.0,0.9,66,-99.99,,,-99.99,WSDL version 423,2013-06-23 19:14:00,
2013-06-23 15:24:00,80.6,68.5,29.44,SSW,205,0.0,0.0,67,-99.99,,,-99.99,WSDL version 423,2013-06-23 19:24:00,
2013-06-23 15:29:00,80.6,68.3,29.44,SW,223,0.0,0.0,66,-99.99,,,-99.99,WSDL version 423,2013-06-23 19:29:00,
2013-06-23 15:34:00,80.6,68.3,29.44,SSW,200,0.0,2.0,67,-99.99,,,-99.99,WSDL version 423,2013-06-23 19:34:00,
2013-06-23 15:39:00,80.3,68.4,29.44,SW,215,0.0,2.0,67,-99.99,,,-99.99,WSDL version 423,2013-06-23 19:39:00,
2013-06-23 15:44:00,80.3,68.4,29.44,SW,228,0.0,1.3,67,-99.99,,,-99.99,WSDL version 423,2013-06-23 19:44:00,
2013-06-23 15:49:00,80.2,68.2,29.44,SSW,210,0.0,1.3,67,-99.99,,,-99.99,WSDL version 423,2013-06-23 19:49:00,
2013-06-23 15:54:00,79.9,68.4,29.44,South,188,0.0,1.3,68,-99.99,,,-99.99,WSDL version 423,2013-06-23 19:54:00,
2013-06-23 15:59:00,79.6,68.0,29.44,SW,228,0.5,2.7,68,-99.99,,,-99.99,WSDL version 423,2013-06-23 19:59:00,
2013-06-23 16:04:00,79.2,67.8,29.44,SW,225,0.0,2.7,69,-99.99,,,-99.99,WSDL version 423,2013-06-23 20:04:00,
2013-06-23 16:14:00,78.2,67.9,29.41,SSW,211,0.0,0.0,71,-99.99,,,-99.99,WSDL version 423,2013-06-23 20:14:00,
2013-06-23 16:19:00,77.9,68.1,29.41,SSW,203,0.0,0.0,72,-99.99,,,-99.99,WSDL version 423,2013-06-23 20:19:00,
2013-06-23 16:24:00,77.8,67.6,29.41,SW,214,0.0,0.0,70,-99.99,,,-99.99,WSDL version 423,2013-06-23 20:24:00,
2013-06-23 16:29:00,77.7,67.8,29.41,SW,225,0.0,0.0,72,-99.99,,,-99.99,WSDL version 423,2013-06-23 20:29:00,
2013-06-23 16:34:00,77.5,68.1,29.41,SW,225,0.0,0.0,73,-99.99,,,-99.99,WSDL version 423,2013-06-23 20:34:00,
2013-06-23 16:39:00,77.4,68.0,29.41,SW,225,0.0,0.0,73,-99.99,,,-99.99,WSDL version 423,2013-06-23 20:39:00,
2013-06-23 16:44:00,77.4,68.7,29.41,SW,222,0.0,0.0,75,-99.99,,,-99.99,WSDL version 423,2013-06-23 20:44:00,
2013-06-23 16:49:00,77.4,68.5,29.41,SW,225,0.0,1.1,74,-99.99,,,-99.99,WSDL version 423,2013-06-23 20:49:00,
2013-06-23 16:54:00,77.0,68.5,29.44,SW,225,0.0,1.1,75,-99.99,,,-99.99,WSDL version 423,2013-06-23 20:54:00,
2013-06-23 17:04:00,76.3,68.3,29.44,SSW,203,0.0,0.0,77,-99.99,,,-99.99,WSDL version 423,2013-06-23 21:04:00,
2013-06-23 17:09:00,76.4,68.7,29.41,SSW,203,0.0,0.0,77,-99.99,,,-99.99,WSDL version 423,2013-06-23 21:09:00,
2013-06-23 17:14:00,76.5,68.7,29.41,SSW,203,0.0,0.0,77,-99.99,,,-99.99,WSDL version 423,2013-06-23 21:14:00,
2013-06-23 17:19:00,76.3,68.7,29.41,SSW,203,0.0,0.0,78,-99.99,,,-99.99,WSDL version 423,2013-06-23 21:19:00,
2013-06-23 17:24:00,76.5,69.1,29.41,SSW,203,0.0,0.0,78,-99.99,,,-99.99,WSDL version 423,2013-06-23 21:24:00,
2013-06-23 17:29:00,77.0,69.6,29.41,SSW,203,0.0,0.0,78,-99.99,,,-99.99,WSDL version 423,2013-06-23 21:29:00,
2013-06-23 17:34:00,77.4,69.6,29.41,South,190,0.0,0.0,77,-99.99,,,-99.99,WSDL version 423,2013-06-23 21:34:00,
2013-06-23 17:39:00,77.7,69.9,29.41,SW,225,0.0,0.0,77,-99.99,,,-99.99,WSDL version 423,2013-06-23 21:39:00,
2013-06-23 17:44:00,77.9,69.9,29.41,SW,225,0.0,0.0,76,-99.99,,,-99.99,WSDL version 423,2013-06-23 21:44:00,
2013-06-23 17:49:00,77.8,69.4,29.41,SW,225,0.0,1.6,76,-99.99,,,-99.99,WSDL version 423,2013-06-23 21:49:00,
2013-06-23 17:54:00,77.9,69.5,29.41,SW,225,0.0,1.6,75,-99.99,,,-99.99,WSDL version 423,2013-06-23 21:54:00,
2013-06-23 17:59:00,77.6,69.0,29.41,SW,225,0.0,0.0,75,-99.99,,,-99.99,WSDL version 423,2013-06-23 21:59:00,
2013-06-23 18:04:00,77.4,68.9,29.41,SW,225,0.0,0.0,75,-99.99,,,-99.99,WSDL version 423,2013-06-23 22:04:00,
2013-06-23 18:09:00,77.8,69.4,29.41,SW,225,0.0,0.0,76,-99.99,,,-99.99,WSDL version 423,2013-06-23 22:09:00,
2013-06-23 18:14:00,77.9,69.5,29.41,SW,225,0.0,0.0,75,-99.99,,,-99.99,WSDL version 423,2013-06-23 22:14:00,
2013-06-23 18:19:00,77.8,69.1,29.41,SW,225,0.0,0.0,74,-99.99,,,-99.99,WSDL version 423,2013-06-23 22:19:00,
2013-06-23 18:24:00,77.6,68.6,29.41,SW,225,0.0,0.9,74,-99.99,,,-99.99,WSDL version 423,2013-06-23 22:24:00,
2013-06-23 18:29:00,77.3,68.3,29.41,SW,233,0.0,0.9,74,-99.99,,,-99.99,WSDL version 423,2013-06-23 22:29:00,
2013-06-23 18:34:00,76.7,68.2,29.41,SW,225,0.0,0.0,75,-99.99,,,-99.99,WSDL version 423,2013-06-23 22:34:00,
2013-06-23 18:39:00,76.8,68.7,29.41,SSW,203,0.0,0.0,76,-99.99,,,-99.99,WSDL version 423,2013-06-23 22:39:00,
2013-06-23 18:44:00,76.8,68.7,29.41,SW,225,0.0,0.0,76,-99.99,,,-99.99,WSDL version 423,2013-06-23 22:44:00,
2013-06-23 18:49:00,76.8,68.7,29.41,SW,225,0.0,0.0,76,-99.99,,,-99.99,WSDL version 423,2013-06-23 22:49:00,
2013-06-23 18:54:00,76.7,68.5,29.41,SW,225,0.0,0.0,76,-99.99,,,-99.99,WSDL version 423,2013-06-23 22:54:00,
2013-06-23 18:59:00,76.6,68.5,29.41,SW,225,0.0,0.0,76,-99.99,,,-99.99,WSDL version 423,2013-06-23 22:59:00,
2013-06-23 19:04:00,76.6,68.4,29.41,SW,225,0.0,1.1,76,-99.99,,,-99.99,WSDL version 423,2013-06-23 23:04:00,
2013-06-23 19:09:00,76.5,68.0,29.41,SW,225,0.0,1.1,75,-99.99,,,-99.99,WSDL version 423,2013-06-23 23:09:00,
2013-06-23 19:14:00,76.2,67.7,29.41,SW,225,0.0,0.0,75,-99.99,,,-99.99,WSDL version 423,2013-06-23 23:14:00,
2013-06-23 19:19:00,75.8,67.4,29.41,SW,225,0.0,0.0,76,-99.99,,,-99.99,WSDL version 423,2013-06-23 23:19:00,
2013-06-23 19:24:00,75.3,67.3,29.44,SW,225,0.0,0.0,77,-99.99,,,-99.99,WSDL version 423,2013-06-23 23:24:00,
2013-06-23 19:29:00,75.0,67.4,29.44,SW,225,0.0,0.0,78,-99.99,,,-99.99,WSDL version 423,2013-06-23 23:29:00,
2013-06-23 19:34:00,74.7,67.8,29.44,SW,225,0.0,0.0,79,-99.99,,,-99.99,WSDL version 423,2013-06-23 23:34:00,
2013-06-23 19:39:00,74.5,67.7,29.41,SW,225,0.0,0.0,80,-99.99,,,-99.99,WSDL version 423,2013-06-23 23:39:00,
2013-06-23 19:44:00,74.3,67.7,29.41,SW,225,0.0,0.0,80,-99.99,,,-99.99,WSDL version 423,2013-06-23 23:44:00,
2013-06-23 19:49:00,74.0,67.6,29.41,SW,225,0.0,0.0,81,-99.99,,,-99.99,WSDL version 423,2013-06-23 23:49:00,
2013-06-23 19:54:00,73.9,67.8,29.44,SW,225,0.0,0.0,82,-99.99,,,-99.99,WSDL version 423,2013-06-23 23:54:00,
2013-06-23 19:59:00,73.6,67.9,29.44,SW,225,0.0,0.0,83,-99.99,,,-99.99,WSDL version 423,2013-06-23 23:59:00,
2013-06-23 20:04:00,73.4,68.2,29.44,SW,225,0.0,0.0,84,-99.99,,,-99.99,WSDL version 423,2013-06-24 00:04:00,
2013-06-23 20:09:00,73.2,68.3,29.41,SW,225,0.0,0.0,86,-99.99,,,-99.99,WSDL version 423,2013-06-24 00:09:00,
2013-06-23 20:14:00,73.0,68.5,29.41,SW,225,0.0,0.0,86,-99.99,,,-99.99,WSDL version 423,2013-06-24 00:14:00,
2013-06-23 20:19:00,72.8,68.4,29.41,SW,225,0.0,0.0,87,-99.99,,,-99.99,WSDL version 423,2013-06-24 00:19:00,
2013-06-23 20:24:00,72.7,68.5,29.41,SW,225,0.0,0.0,87,-99.99,,,-99.99,WSDL version 423,2013-06-24 00:24:00,
2013-06-23 20:29:00,72.5,68.6,29.41,South,188,0.0,0.0,88,-99.99,,,-99.99,WSDL version 423,2013-06-24 00:29:00,
2013-06-23 20:34:00,72.2,68.4,29.41,SSE,158,0.0,0.0,88,-99.99,,,-99.99,WSDL version 423,2013-06-24 00:34:00,
2013-06-23 20:39:00,71.9,68.1,29.41,SSE,158,0.0,0.0,88,-99.99,,,-99.99,WSDL version 423,2013-06-24 00:39:00,
2013-06-23 20:44:00,71.6,68.2,29.41,SSE,158,0.0,0.0,89,-99.99,,,-99.99,WSDL version 423,2013-06-24 00:44:00,
2013-06-23 20:49:00,71.3,68.2,29.41,SSE,158,0.0,0.0,90,-99.99,,,-99.99,WSDL version 423,2013-06-24 00:49:00,
2013-06-23 20:54:00,71.1,68.2,29.41,SSE,158,0.0,0.0,91,-99.99,,,-99.99,WSDL version 423,2013-06-24 00:54:00,
2013-06-23 20:59:00,70.9,68.2,29.41,SSE,158,0.0,0.0,91,-99.99,,,-99.99,WSDL version 423,2013-06-24 00:59:00,
2013-06-23 21:04:00,70.7,68.2,29.41,SSE,158,0.0,0.0,92,-99.99,,,-99.99,WSDL version 423,2013-06-24 01:04:00,
2013-06-23 21:09:00,70.6,68.2,29.41,SSE,158,0.0,0.0,92,-99.99,,,-99.99,WSDL version 423,2013-06-24 01:09:00,
2013-06-23 21:14:00,70.4,68.4,29.41,SSE,158,0.0,0.0,93,-99.99,,,-99.99,WSDL version 423,2013-06-24 01:14:00,
2013-06-23 21:19:00,70.3,68.4,29.41,SSE,158,0.0,0.0,94,-99.99,,,-99.99,WSDL version 423,2013-06-24 01:19:00,
2013-06-23 21:24:00,70.2,68.5,29.41,SSE,158,0.0,0.0,94,-99.99,,,-99.99,WSDL version 423,2013-06-24 01:24:00,
2013-06-23 21:29:00,70.2,68.5,29.41,SSE,158,0.0,0.0,94,-99.99,,,-99.99,WSDL version 423,2013-06-24 01:29:00,
2013-06-23 21:34:00,70.2,68.8,29.41,SSE,158,0.0,0.0,96,-99.99,,,-99.99,WSDL version 423,2013-06-24 01:34:00,
2013-06-23 21:39:00,70.0,68.7,29.41,South,180,0.0,0.0,96,-99.99,,,-99.99,WSDL version 423,2013-06-24 01:39:00,
2013-06-23 21:44:00,69.9,68.6,29.41,South,180,0.0,0.0,96,-99.99,,,-99.99,WSDL version 423,2013-06-24 01:44:00,
2013-06-23 21:49:00,69.7,68.6,29.41,SSE,155,0.0,0.0,97,-99.99,,,-99.99,WSDL version 423,2013-06-24 01:49:00,
2013-06-23 21:54:00,69.5,68.5,29.41,SE,135,0.0,0.0,97,-99.99,,,-99.99,WSDL version 423,2013-06-24 01:54:00,
2013-06-23 21:59:00,69.4,68.7,29.41,SE,135,0.0,0.0,98,-99.99,,,-99.99,WSDL version 423,2013-06-24 01:59:00,
2013-06-23 22:04:00,69.4,68.8,29.41,SE,135,0.0,0.0,98,-99.99,,,-99.99,WSDL version 423,2013-06-24 02:04:00,
2013-06-23 22:09:00,69.4,68.8,29.41,SE,135,0.0,0.0,98,-99.99,,,-99.99,WSDL version 423,2013-06-24 02:09:00,
2013-06-23 22:14:00,69.4,68.8,29.41,SE,135,0.0,0.0,98,-99.99,,,-99.99,WSDL version 423,2013-06-24 02:14:00,
2013-06-23 22:19:00,69.4,68.7,29.41,WSW,248,0.0,0.0,98,-99.99,,,-99.99,WSDL version 423,2013-06-24 02:19:00,
2013-06-23 22:24:00,69.3,68.8,29.41,ENE,73,0.0,0.0,99,-99.99,,,-99.99,WSDL version 423,2013-06-24 02:24:00,
2013-06-23 22:29:00,69.3,68.7,29.41,NW,315,0.0,0.0,99,-99.99,,,-99.99,WSDL version 423,2013-06-24 02:29:00,
2013-06-23 22:34:00,69.3,68.9,29.41,NW,323,0.0,0.0,99,-99.99,,,-99.99,WSDL version 423,2013-06-24 02:34:00,
2013-06-23 22:44:00,69.0,68.7,29.38,NNW,329,0.0,0.0,99,-99.99,,,-99.99,WSDL version 423,2013-06-24 02:44:00,
2013-06-23 22:49:00,68.9,68.7,29.38,NNW,338,0.0,0.0,100,-99.99,,,-99.99,WSDL version 423,2013-06-24 02:49:00,
2013-06-23 22:54:00,68.8,68.8,29.38,NNW,338,0.0,0.0,100,-99.99,,,-99.99,WSDL version 423,2013-06-24 02:54:00,
2013-06-23 22:59:00,68.7,68.7,29.38,NNW,338,0.0,0.0,100,-99.99,,,-99.99,WSDL version 423,2013-06-24 02:59:00,
2013-06-23 23:04:00,68.5,68.5,29.38,West,263,0.0,2.0,100,-99.99,,,-99.99,WSDL version 423,2013-06-24 03:04:00,
2013-06-23 23:09:00,68.4,68.4,29.38,NW,315,0.0,2.0,100,-99.99,,,-99.99,WSDL version 423,2013-06-24 03:09:00,
2013-06-23 23:14:00,68.3,68.3,29.38,SE,125,0.0,1.6,100,-99.99,,,-99.99,WSDL version 423,2013-06-24 03:14:00,
2013-06-23 23:19:00,68.2,68.2,29.38,NNW,338,0.0,1.1,100,-99.99,,,-99.99,WSDL version 423,2013-06-24 03:19:00,
2013-06-23 23:24:00,68.2,68.1,29.38,SW,230,0.0,1.1,100,-99.99,,,-99.99,WSDL version 423,2013-06-24 03:24:00,
2013-06-23 23:29:00,68.0,68.0,29.38,NNW,340,2.2,2.9,100,-99.99,,,-99.99,WSDL version 423,2013-06-24 03:29:00,
2013-06-23 23:34:00,68.0,68.0,29.38,NNE,23,0.1,3.4,100,-99.99,,,-99.99,WSDL version 423,2013-06-24 03:34:00,
2013-06-23 23:39:00,67.8,67.8,29.41,SW,217,0.0,3.4,100,-99.99,,,-99.99,WSDL version 423,2013-06-24 03:39:00,
2013-06-23 23:44:00,67.7,67.7,29.41,NNW,343,0.0,2.2,100,-99.99,,,-99.99,WSDL version 423,2013-06-24 03:44:00,
2013-06-23 23:49:00,67.6,67.6,29.41,WSW,248,0.0,2.7,100,-99.99,,,-99.99,WSDL version 423,2013-06-24 03:49:00,
2013-06-23 23:54:00,67.6,67.6,29.38,SE,135,0.0,2.7,100,-99.99,,,-99.99,WSDL version 423,2013-06-24 03:54:00,
2013-06-23 23:59:00,67.6,67.6,29.38,SW,233,0.0,0.0,100,-99.99,,,-99.99,WSDL version 423,2013-06-24 03:59:00,